Temp
14 14 15 15 15 15 15 15 15 15 15 15 15 15 15 14 14 14 14 14 14 13 13 13 13 13 13 13 13 13 13 13 13 13 13 14 13 13 13 13 13 13
14 14 14 15 15 15 15 15 15 15 15 15 15 15 14 14 14 14 14 14 13 13 13 13 13 13 13 13 13 13 13 13 13 13 13 14 14 13 13 13 13 13
14 14 14 15 15 15 15 15 15 15 15 15 15 14 14 14 14 14 13 13 13 13 13 13 13 13 13 13 13 13 13 13 14 14 14 14 14 13 13 13 13 13
14 14 15 15 15 15 15 15 15 14 14 14 14 14 14 14 14 13 13 13 13 13 13 13 13 13 13 13 13 13 14 14 14 14 14 14 14 13 13 13 13 13
15 14 14 15 15 15 15 15 15 14 14 14 14 14 14 14 14 14 14 13 13 13 13 13 13 13 13 13 14 14 14 14 14 14 14 14 13 13 13 13 13 13
15 15 14 15 15 15 15 15 15 14 14 14 14 14 14 14 14 14 14 13 13 13 13 13 13 13 13 14 14 14 14 14 14 14 14 13 13 13 13 13 13 13
15 15 14 15 15 15 15 15 15 14 14 14 14 14 14 14 14 13 13 13 13 13 13 13 13 13 13 13 14 14 14 14 14 14 13 13 13 13 13 13 13 13
15 14 14 15 15 15 15 15 14 14 14 13 14 14 14 13 13 13 13 13 13 13 13 13 13 13 13 13 14 14 14 13 13 13 13 13 13 13 13 13 13 13
14 14 14 14 15 15 15 15 14 14 13 13 13 13 13 13 13 13 13 13 13 12 12 13 13 13 13 13 13 13 13 13 13 13 12 12 13 13 13 13 13 13
14 14 14 14 14 15 15 15 14 14 13 13 13 13 13 13 13 13 13 13 12 12 12 12 13 13 13 13 13 13 13 13 13 13 12 12 12 12 12 12 12 12
14 14 14 14 14 15 15 15 14 13 13 13 13 13 13 12 12 13 13 13 12 12 12 12 12 13 13 13 13 13 13 12 12 12 12 12 12 12 12 12 12 12
14 14 14 14 14 15 15 15 14 13 13 13 13 13 13 12 12 12 12 12 12 12 12 12 12 13 13 13 12 12 12 12 12 12 12 12 12 12 11 11 11 11
14 14 14 14 14 14 15 14 13 13 13 13 13 13 13 12 12 12 12 12 12 12 12 12 12 13 13 12 12 12 12 12 12 12 12 11 11 11 11 11 10 10
14 14 14 14 14 14 14 14 13 13 13 13 13 13 13 12 12 12 12 12 12 12 11 12 12 13 12 12 12 12 12 12 12 12 11 11 11 11 10 10 10 10
14 14 14 14 14 14 14 13 13 13 13 13 13 12 12 12 12 11 11 11 11 11 11 12 12 13 12 12 12 12 12 12 12 11 11 11 11 10 10 10 9 9
14 14 14 14 13 14 13 13 13 13 13 13 13 12 11 11 11 11 10 11 11 11 11 12 12 12 12 12 11 11 11 11 11 11 11 10 10 10 10 9 9 9
13 14 14 14 14 13 13 13 13 13 13 13 12 12 11 11 11 11 10 10 11 11 11 12 12 12 12 12 11 11 11 11 11 10 10 10 9 9 9 9 9 9
13 14 14 14 14 13 13 13 13 13 13 13 12 12 11 11 11 11 10 11 11 11 11 11 11 12 11 11 11 11 10 10 10 10 9 9 9 9 9 8 8 8
13 13 14 14 13 13 13 13 13 13 13 13 12 12 11 11 10 11 11 11 11 11 11 11 11 11 11 11 10 10 10 10 9 9 9 9 9 8 8 8 8 8
13 13 13 14 13 13 14 13 13 13 13 12 12 12 12 11 11 11 11 10 11 10 11 11 11 11 10 10 10 10 9 9 9 8 8 8 8 8 7 7 7 7
13 13 13 14 14 14 14 13 13 13 13 12 12 12 12 11 11 11 10 10 10 10 10 10 10 10 10 10 10 9 9 9 8 8 8 7 7 7 7 7 7 6
14 13 13 14 14 14 14 13 13 13 13 13 12 12 11 11 11 11 11 10 10 10 10 10 10 10 9 9 9 9 8 8 8 8 7 7 7 6 6 6 6 6
14 14 14 14 14 14 14 14 13 13 13 13 12 12 11 11 10 11 10 10 10 10 10 10 10 9 9 9 9 8 8 8 8 7 7 7 6 6 6 6 6 6
14 14 14 14 14 14 14 14 13 13 13 13 12 11 11 10 10 10 10 10 10 10 10 10 10 9 9 9 8 8 8 8 8 7 7 7 6 6 6 6 6 6
14 14 14 14 14 14 14 14 14 13 13 12 11 11 11 10 10 10 10 10 9 9 9 10 10 9 9 9 8 8 8 8 7 7 7 7 6 6 6 6 6 6
13 14 14 14 14 14 14 14 14 13 12 12 11 11 11 10 10 10 10 9 9 9 9 10 10 9 9 9 8 8 8 8 7 7 7 7 6 6 6 6 6 6
Height
1505 1508 1510 1512 1514 1516 1519 1521 1523 1525 1527 1529 1531 1533 1535 1537 1538 1539 1541 1542 1543 1544 1546 1547 1548 1549 1549 1550 1551 1551 1552 1552 1553 1553 1554 1554 1556 1557 1557 1558 1558 1559
1503 1505 1508 1510 1512 1514 1517 1519 1521 1523 1525 1528 1530 1532 1534 1535 1537 1538 1539 1540 1541 1543 1544 1545 1546 1547 1548 1549 1549 1549 1550 1550 1551 1552 1552 1553 1554 1555 1556 1556 1557 1557
1500 1503 1505 1508 1510 1512 1515 1517 1520 1522 1524 1526 1528 1530 1532 1534 1535 1536 1537 1539 1540 1541 1542 1544 1544 1545 1546 1547 1548 1548 1548 1549 1550 1550 1551 1552 1553 1554 1554 1555 1555 1556
1498 1500 1503 1506 1508 1511 1513 1515 1517 1519 1522 1524 1526 1528 1530 1532 1533 1534 1535 1537 1538 1539 1541 1542 1543 1544 1545 1546 1546 1546 1547 1548 1549 1549 1550 1551 1552 1553 1553 1553 1554 1555
1496 1498 1501 1504 1506 1509 1511 1513 1515 1517 1519 1522 1524 1526 1528 1530 1531 1532 1534 1535 1536 1538 1539 1540 1541 1542 1544 1545 1545 1545 1546 1547 1548 1548 1549 1550 1550 1551 1551 1552 1553 1554
1493 1496 1499 1502 1504 1506 1509 1510 1512 1515 1517 1521 1523 1525 1527 1528 1529 1531 1532 1533 1535 1536 1537 1538 1539 1540 1542 1543 1544 1544 1545 1546 1546 1547 1548 1548 1549 1550 1550 1551 1552 1553
1490 1494 1497 1500 1502 1504 1506 1508 1510 1513 1516 1519 1522 1523 1525 1526 1528 1529 1531 1532 1533 1534 1536 1537 1537 1539 1541 1542 1542 1543 1543 1544 1545 1546 1546 1547 1548 1549 1549 1550 1552 1553
1488 1491 1495 1498 1499 1501 1503 1505 1508 1510 1514 1517 1519 1521 1523 1524 1526 1528 1529 1530 1531 1533 1534 1535 1536 1537 1539 1540 1541 1541 1542 1543 1544 1544 1545 1546 1547 1548 1549 1550 1551 1552
1486 1490 1493 1495 1497 1499 1501 1503 1505 1508 1511 1514 1516 1518 1521 1523 1524 1526 1528 1529 1530 1531 1533 1534 1535 1536 1537 1539 1539 1540 1541 1542 1543 1543 1544 1545 1546 1548 1549 1550 1551 1551
1483 1487 1491 1493 1494 1496 1498 1501 1504 1506 1509 1511 1514 1517 1519 1521 1523 1525 1526 1527 1529 1530 1531 1532 1533 1535 1536 1537 1538 1539 1539 1540 1541 1542 1543 1544 1546 1547 1548 1549 1550 1551
1481 1484 1488 1490 1491 1493 1496 1499 1501 1504 1507 1509 1511 1514 1516 1519 1521 1523 1524 1526 1527 1528 1530 1531 1532 1533 1534 1535 1536 1537 1538 1539 1540 1541 1542 1544 1545 1546 1547 1548 1549 1550
1477 1481 1484 1487 1489 1491 1494 1497 1500 1502 1505 1507 1509 1512 1514 1517 1519 1521 1523 1524 1526 1527 1529 1530 1531 1532 1533 1534 1535 1536 1536 1537 1538 1540 1541 1543 1544 1545 1546 1547 1549 1550
1474 1478 1482 1484 1486 1489 1492 1495 1498 1502 1504 1506 1509 1512 1513 1515 1517 1519 1521 1523 1525 1526 1528 1529 1530 1531 1531 1532 1533 1534 1535 1536 1537 1539 1540 1541 1543 1544 1545 1546 1548 1549
1472 1476 1479 1482 1484 1487 1491 1494 1497 1501 1504 1506 1509 1511 1513 1514 1515 1517 1520 1522 1523 1525 1526 1528 1528 1529 1530 1531 1531 1533 1534 1535 1536 1538 1539 1540 1542 1543 1544 1546 1547 1548
1470 1474 1477 1480 1483 1486 1489 1492 1496 1499 1502 1504 1507 1509 1511 1512 1514 1516 1518 1520 1522 1524 1525 1526 1527 1528 1529 1529 1530 1532 1533 1534 1535 1537 1538 1539 1541 1542 1543 1545 1546 1547
1468 1472 1475 1478 1481 1483 1487 1490 1494 1497 1499 1502 1505 1507 1509 1510 1513 1515 1517 1519 1521 1522 1524 1525 1526 1527 1527 1528 1529 1530 1532 1533 1534 1536 1537 1538 1540 1541 1542 1544 1545 1546
1465 1469 1473 1476 1478 1481 1484 1488 1492 1495 1497 1500 1503 1505 1507 1509 1511 1513 1515 1518 1519 1521 1522 1523 1525 1526 1526 1527 1528 1529 1530 1532 1533 1535 1536 1537 1539 1540 1542 1543 1544 1545
1463 1467 1470 1473 1476 1479 1482 1486 1490 1493 1495 1498 1501 1503 1505 1507 1509 1512 1514 1516 1518 1519 1521 1522 1523 1524 1525 1526 1527 1528 1529 1530 1532 1534 1535 1536 1538 1539 1541 1542 1543 1544
1461 1464 1468 1471 1474 1477 1481 1484 1487 1490 1493 1496 1498 1501 1503 1505 1508 1510 1512 1515 1516 1518 1520 1521 1522 1523 1524 1525 1526 1527 1528 1529 1531 1532 1534 1535 1537 1538 1540 1541 1542 1543
1458 1462 1466 1469 1472 1475 1478 1482 1485 1488 1491 1494 1496 1498 1500 1503 1506 1508 1511 1513 1515 1517 1518 1520 1521 1522 1522 1523 1524 1525 1526 1528 1529 1531 1532 1534 1535 1537 1538 1539 1541 1542
1456 1460 1464 1467 1470 1473 1476 1479 1483 1486 1488 1491 1494 1496 1499 1501 1504 1506 1509 1512 1514 1515 1517 1518 1519 1520 1521 1522 1523 1524 1525 1526 1528 1529 1531 1532 1534 1535 1537 1538 1539 1541
1453 1458 1461 1464 1467 1471 1474 1477 1480 1483 1486 1489 1491 1494 1496 1499 1502 1504 1507 1510 1512 1514 1516 1517 1518 1519 1520 1521 1522 1522 1523 1524 1526 1528 1529 1530 1532 1533 1535 1536 1537 1539
1451 1455 1459 1462 1465 1468 1471 1475 1478 1481 1483 1486 1489 1491 1494 1496 1499 1502 1505 1508 1510 1512 1514 1515 1516 1517 1519 1520 1520 1521 1522 1523 1524 1526 1527 1529 1530 1531 1533 1534 1535 1536
1449 1453 1456 1459 1462 1465 1469 1472 1475 1478 1481 1484 1486 1489 1491 1494 1497 1500 1503 1506 1508 1510 1512 1513 1514 1515 1517 1518 1518 1519 1520 1521 1522 1524 1525 1527 1528 1529 1530 1531 1532 1533
1448 1451 1454 1457 1460 1463 1467 1469 1472 1476 1479 1482 1485 1487 1490 1492 1495 1498 1501 1503 1506 1508 1509 1511 1512 1514 1515 1516 1517 1518 1518 1520 1521 1522 1523 1525 1526 1527 1528 1529 1530 1531
1446 1449 1452 1455 1459 1462 1464 1466 1470 1474 1478 1480 1483 1485 1488 1490 1493 1496 1499 1501 1504 1505 1507 1509 1510 1512 1513 1514 1515 1516 1517 1518 1519 1520 1521 1523 1524 1525 1526 1527 1528 1528
Wind_Speed
40 39 37 34 32 30 29 28 26 25 24 23 21 19 18 17 17 17 17 16 14 13 12 11 12 12 12 12 12 13 14 13 10 9 9 10 12 12 12 11 12 12
41 40 38 36 34 31 29 28 26 25 24 22 21 20 19 18 17 17 17 16 15 14 13 12 12 13 13 12 13 14 14 11 8 8 9 10 11 11 11 11 11 11
43 42 40 38 35 32 29 28 27 26 24 22 21 20 19 19 18 17 17 17 16 15 14 13 13 13 13 12 13 12 11 8 7 9 10 11 11 11 11 11 10 9
44 43 41 39 36 32 29 27 27 27 25 23 22 20 19 18 18 17 17 17 16 15 14 14 14 14 12 11 11 10 9 9 10 11 11 11 11 11 11 10 9 8
44 44 42 39 36 32 29 27 27 26 25 24 22 21 20 18 18 18 17 16 16 16 14 14 14 14 12 10 10 9 9 11 12 12 11 11 11 11 10 8 8 8
45 44 43 40 36 32 30 28 27 26 25 23 23 22 20 18 18 18 17 16 16 16 15 14 15 14 12 11 11 10 10 11 11 11 11 11 11 11 9 8 8 8
45 44 43 40 36 32 30 29 27 26 24 23 23 22 20 19 19 18 17 16 16 16 14 14 15 14 12 12 13 11 10 11 11 11 11 11 10 10 8 8 8 8
45 44 42 39 36 33 31 30 28 25 22 22 24 23 20 19 18 18 17 17 17 16 14 14 15 14 12 13 13 11 11 12 11 11 10 10 10 9 8 9 9 8
44 43 42 39 36 34 32 30 28 25 22 22 24 23 20 19 19 18 17 17 17 16 15 15 15 14 14 14 13 12 12 12 11 10 9 9 8 8 9 9 9 9
43 43 41 39 36 34 32 30 27 24 22 23 23 21 20 20 19 18 18 19 18 17 15 15 15 15 15 15 14 13 12 12 11 9 8 8 8 9 9 9 9 8
43 42 41 38 36 34 32 29 27 24 23 23 23 21 20 19 18 19 20 19 18 16 15 15 14 14 14 14 14 13 12 12 10 9 8 9 9 9 9 9 8 8
42 41 40 38 36 34 31 29 27 24 24 25 24 21 19 17 17 20 21 20 18 16 15 14 13 12 13 13 13 13 12 12 11 10 9 9 10 10 10 9 9 8
42 41 39 37 35 32 30 29 26 24 24 25 23 20 17 16 18 20 21 19 17 16 15 14 12 12 12 13 12 12 12 11 11 11 11 11 11 11 11 10 10 9
42 39 38 36 33 30 28 26 25 23 22 22 21 19 17 16 18 21 20 18 18 17 15 14 13 13 12 12 12 12 12 11 11 11 12 12 12 12 12 11 11 10
40 38 37 34 30 28 26 24 23 21 21 21 21 19 17 17 20 22 20 19 18 17 15 14 14 13 12 11 12 12 12 12 12 12 12 13 13 13 13 12 12 11
39 37 35 31 28 27 25 23 22 21 21 21 21 20 17 18 22 22 19 19 18 16 15 14 14 13 12 12 12 12 12 12 12 13 13 13 13 13 13 13 12 11
38 36 33 30 28 27 25 23 23 22 21 21 21 20 18 18 22 21 19 18 17 16 15 13 13 13 12 12 13 13 13 12 12 13 13 13 13 13 13 13 12 12
38 35 33 30 28 26 24 22 22 24 24 22 21 20 18 19 22 20 18 18 18 17 15 13 12 12 12 13 14 14 14 13 12 12 12 12 12 12 13 13 13 13
38 35 32 30 28 25 24 23 23 26 26 22 20 20 18 18 22 21 20 20 19 18 15 13 12 12 13 14 14 14 14 12 12 12 11 11 11 12 13 13 13 13
38 35 32 30 28 26 27 26 23 24 24 20 20 22 19 18 21 22 21 20 19 17 15 13 12 12 13 14 15 14 13 12 11 11 11 11 11 11 12 12 13 12
39 35 31 29 27 26 29 30 26 23 21 22 24 24 19 18 22 23 22 20 19 17 13 12 11 10 10 12 13 13 12 12 12 12 11 11 11 11 11 12 12 11
38 35 32 30 28 26 27 31 30 24 20 23 26 22 18 20 24 24 23 21 18 15 12 11 9 7 5 6 9 11 12 11 12 12 12 12 11 11 12 12 12 11
38 36 33 31 30 29 28 29 29 25 22 25 26 20 19 22 25 25 23 20 17 13 11 10 9 5 4 4 6 9 10 11 11 12 12 12 12 12 12 13 13 13
37 35 34 33 34 34 31 28 27 26 26 27 24 19 20 24 26 25 23 20 16 12 10 9 9 6 4 4 5 7 8 9 10 11 12 12 13 13 13 14 16 16
34 33 36 36 35 34 32 31 31 29 26 25 22 19 20 23 27 26 23 19 16 13 10 10 11 9 6 4 4 5 7 9 10 12 12 13 13 14 15 16 18 18
33 34 36 36 35 33 32 34 35 31 24 21 21 20 19 22 27 27 22 18 16 15 13 12 13 13 10 7 6 6 7 9 11 12 13 13 14 16 16 16 17 17
Wind_Direction
226 227 228 226 222 222 223 224 225 228 230 233 236 237 238 240 240 241 242 241 239 238 240 242 244 247 251 258 265 267 264 256 250 247 245 246 243 239 238 238 237 235
227 227 228 226 223 223 224 225 228 231 234 236 238 238 237 239 240 242 243 242 241 241 242 243 246 250 255 262 268 267 260 250 244 250 252 249 244 241 242 239 232 228
227 227 227 226 224 224 224 226 230 234 237 239 240 239 239 238 237 239 241 241 241 241 241 242 245 251 257 265 268 262 255 250 247 248 249 248 245 243 242 234 222 215
227 227 227 227 227 227 226 227 230 232 235 236 238 241 242 237 234 234 236 237 239 240 239 238 242 249 256 263 263 253 247 247 243 240 240 243 244 241 234 222 210 207
226 227 227 227 227 227 227 228 230 232 233 234 235 239 241 236 230 230 230 231 235 236 234 234 240 248 252 253 251 245 240 238 235 236 237 237 237 233 223 209 206 209
226 227 227 227 227 227 227 228 231 233 233 233 234 237 238 233 228 228 228 229 231 231 229 231 240 248 248 244 242 241 237 233 231 232 232 230 228 224 213 206 211 215
225 226 226 225 226 226 226 229 232 233 233 234 235 236 233 228 226 226 227 227 227 226 225 229 240 249 248 240 239 241 239 235 232 227 225 223 220 217 216 216 219 221
225 225 224 224 224 225 225 227 231 232 232 234 234 232 228 224 223 223 223 223 222 221 221 227 238 245 245 242 240 241 239 238 235 225 219 220 219 219 223 225 225 225
225 224 224 223 223 224 224 226 229 231 232 235 235 231 226 224 222 220 220 220 218 217 218 224 234 239 242 243 241 237 236 237 234 225 218 221 226 227 228 229 229 229
224 224 223 222 222 223 223 225 228 230 232 236 236 233 227 225 222 218 217 217 215 216 218 223 232 239 241 241 237 233 232 232 229 223 221 224 227 230 230 231 233 234
223 223 222 221 222 222 222 224 227 231 234 235 235 232 228 226 221 215 214 213 213 215 221 227 234 240 241 237 233 230 228 226 221 218 222 224 223 225 228 230 233 234
221 222 221 220 222 222 222 223 227 232 235 236 235 230 226 224 218 212 211 210 210 215 224 230 235 237 236 233 230 228 225 223 218 214 217 221 221 222 224 226 228 229
221 221 220 220 221 221 223 223 226 232 237 239 236 229 229 229 217 209 208 207 210 218 225 229 231 231 231 230 228 225 225 225 221 217 217 218 221 222 222 222 224 227
221 220 219 219 219 220 223 225 227 232 236 239 234 226 234 237 217 205 205 206 211 220 226 229 228 228 229 231 230 226 226 225 223 223 220 220 222 221 221 222 223 226
220 219 217 216 217 218 220 224 228 230 232 234 225 222 235 232 210 202 204 208 214 222 227 227 225 226 228 231 233 230 228 226 223 225 224 223 225 223 222 223 224 228
218 217 214 212 214 217 218 221 227 229 231 228 218 222 237 222 201 200 204 208 217 225 228 228 225 226 228 231 233 231 228 228 225 225 225 224 226 227 227 226 227 230
216 214 210 210 214 215 215 219 225 227 228 224 217 228 239 214 197 200 203 207 220 227 228 229 228 228 230 231 231 228 225 225 225 226 227 226 227 230 231 232 233 233
214 210 208 211 214 212 212 217 223 225 223 219 218 232 238 211 195 200 204 209 222 228 228 230 230 231 233 231 230 227 222 221 222 224 228 229 230 231 232 234 237 238
213 208 207 212 212 210 213 216 220 222 219 216 218 231 236 212 195 198 205 210 222 230 232 234 232 230 232 230 228 225 220 219 220 222 226 230 233 236 236 236 238 240
213 209 210 212 211 212 214 213 216 219 218 218 222 229 232 213 197 199 205 212 223 230 234 237 233 229 229 228 225 223 220 220 221 222 225 228 233 238 239 240 240 240
213 210 210 212 211 214 215 212 211 214 216 220 220 224 230 215 200 201 205 212 222 228 232 233 225 221 224 223 222 221 221 221 221 222 225 227 231 235 237 239 238 235
212 209 211 212 210 213 216 214 210 206 214 221 216 219 228 215 202 202 207 212 219 223 226 220 203 198 217 224 223 222 221 221 221 222 225 228 229 232 234 236 236 235
211 210 211 211 211 211 211 213 213 211 219 221 213 219 231 213 200 203 208 211 215 215 214 204 189 192 241 249 235 228 225 224 223 222 226 228 228 231 233 235 238 237
209 212 213 212 214 212 208 211 216 217 220 218 214 228 235 211 197 202 206 207 210 209 205 200 194 201 235 247 242 238 236 231 226 226 228 227 226 227 230 234 238 237
209 214 217 215 214 212 211 215 215 210 213 217 219 234 234 209 198 202 203 202 206 205 201 207 209 209 217 232 237 243 245 238 231 229 227 225 225 225 227 235 239 238
212 215 216 216 213 210 215 221 213 203 207 217 221 228 226 208 199 199 199 202 208 207 204 211 216 215 217 225 228 237 248 244 237 233 230 228 228 228 232 241 242 238